User: anonymous   Login
Location: Unspecified
(0.0000°N, 0.0000°E)
Time: 12:52:46
(UTC+00:00)
Language:

METEOR-M - Orbit

View from above orbital plane
View from above orbital plane
View from above satellite
View from above satellite

Ground track
Ground track

The orbit data is extracted from the following two-line orbital elements,

1 35865U 09049A   16041.10330569 -.00000018  00000-0  10930-4 0  9995
2 35865  98.4721  77.5464 0003283 129.6266 251.1483 14.22056334332025
Epoch (UTC): 10 February 2016 02:28:45
Eccentricity: 0.0003283
inclination: 98.4721°
perigee height: 816 km
apogee height: 821 km
right ascension of ascending node: 77.5464°
argument of perigee: 129.6266°
revolutions per day: 14.22056334
mean anomaly at epoch: 251.1483°
orbit number at epoch: 33202

The dashed part of the orbit path shows where the satellite is in the earth's shadow,  

DLR